Weather History for Laramie, WY

Change the Weather History Date:

Sunday, May 11, 2014

  Actual Average Record
Temperature  
Mean Temperature 29 °F 46 °F  
Max Temperature 32 °F 60 °F 79 °F (1962)
Min Temperature 25 °F 32 °F 16 °F (1999)
Degree Days  
Heating Degree Days 36 19  
Month to date heating degree days 236 227  
Since 1 July heating degree days 8071 8276  
Cooling Degree Days 0 0  
Month to date cooling degree days 0 0  
Year to date cooling degree days 0 0  
Moisture  
Dew Point 25 °F    
Average Humidity 92    
Maximum Humidity 100    
Minimum Humidity 84    
Precipitation  
Precipitation 0.36 in 0.05 in 0.56 in (2011)
Month to date precipitation 0.81 0.51  
Year to date precipitation 3.34 2.77  
Sea Level Pressure  
Sea Level Pressure 29.94 in    
Wind  
Wind Speed 14 mph (North)    
Max Wind Speed 22 mph    
Max Gust Speed 27 mph    
Visibility 1 miles    
Events Fog , Snow    
T = Trace of Precipitation, MM = Missing Value Source: NWS Daily Summary

Daily Weather History Graph

Daily Weather History Graph

Search for Another Location

Airport:

Trip Planner

Search our weather history database for the weather conditions in past years. The results will help you decide how hot, cold, wet, or windy it might be!

Date:

Astronomy

May. 11, 2014 Rise Set
Actual Time 5:48 AM MDT 8:10 PM MDT
Civil Twilight 5:17 AM MDT 8:41 PM MDT
Nautical Twilight 4:38 AM MDT 9:20 PM MDT
Astronomical Twilight 3:56 AM MDT 10:03 PM MDT
Moon 5:07 PM MDT (5/11) 3:56 AM MDT (5/11)
Length of Visible Light 15h 24m
Length of Day
14h 22m
Waxing Gibbous, 89% of the Moon is Illuminated
May 11
Waxing Gibbous
May 14
Full
May 21
Last Quarter
May 28
New
Jun 5
First Quarter

Hourly Weather History & Observations

Time (MDT) Temp. Windchill Dew Point Humidity Pressure Visibility Wind Dir Wind Speed Gust Speed Precip Events Conditions
12:01 AM 32.0 °F 24.8 °F 32.0 °F 100% 29.84 in 0.5 mi NNE 8.1 mph - 0.01 in Fog , Snow Snow
12:34 AM 32.0 °F 26.4 °F 32.0 °F 100% 29.85 in 0.5 mi NNE 5.8 mph - 0.06 in Fog , Snow Snow
12:53 AM 32.0 °F 24.8 °F 32.0 °F 100% 29.71 in 0.5 mi North 8.1 mph - 0.11 in Fog , Snow Snow
1:11 AM 32.0 °F 25.6 °F 32.0 °F 100% 29.84 in 0.8 mi NNW 6.9 mph - 0.02 in Snow Light Snow
1:29 AM 32.0 °F 23.6 °F 30.9 °F 96% 29.85 in 0.5 mi NW 10.4 mph - 0.04 in Fog , Snow Snow
1:53 AM 32.0 °F 23.0 °F 30.9 °F 96% 29.71 in 0.5 mi NNW 11.5 mph - 0.07 in Fog , Snow Snow
2:53 AM 32.0 °F 22.1 °F 30.9 °F 96% 29.70 in 0.5 mi NNE 13.8 mph - 0.05 in Fog , Snow Snow
3:53 AM 30.0 °F 17.9 °F 28.9 °F 96% 29.70 in 0.5 mi NNE 18.4 mph 25.3 mph 0.03 in Fog , Snow Snow
4:28 AM 28.9 °F 16.1 °F 28.0 °F 96% 29.82 in 0.8 mi NNE 19.6 mph 26.5 mph 0.02 in Snow Light Snow
4:39 AM 28.9 °F 17.3 °F 28.0 °F 96% 29.83 in 1.2 mi NNE 16.1 mph 25.3 mph 0.02 in Snow Light Snow
4:46 AM 28.9 °F 16.9 °F 28.0 °F 96% 29.83 in 0.5 mi NNE 17.3 mph 24.2 mph 0.02 in Fog , Snow Snow
4:53 AM 28.9 °F 16.9 °F 28.0 °F 96% 29.73 in 0.2 mi NNE 17.3 mph 24.2 mph 0.02 in Fog , Snow Snow
5:00 AM 28.9 °F 16.5 °F 27.0 °F 92% 29.82 in 0.2 mi NNE 18.4 mph 24.2 mph 0.01 in Fog , Snow Heavy Snow
5:46 AM 27.0 °F 13.9 °F 26.1 °F 96% 29.83 in 0.5 mi NE 18.4 mph - 0.03 in Fog , Snow Snow
5:53 AM 27.0 °F 13.9 °F 26.1 °F 96% 29.75 in 0.5 mi NE 18.4 mph - 0.03 in Fog , Snow Snow
6:41 AM 27.0 °F 14.7 °F 25.0 °F 92% 29.85 in 0.5 mi NNE 16.1 mph - 0.01 in Fog , Snow Light Snow
6:53 AM 27.0 °F 14.7 °F 25.0 °F 92% 29.78 in 0.2 mi NNE 16.1 mph 23.0 mph 0.01 in Fog , Snow Snow
7:01 AM 26.1 °F 14.0 °F 25.0 °F 96% 29.84 in 0.2 mi NNE 15.0 mph - 0.00 in Fog , Snow Heavy Snow
7:21 AM 26.1 °F 13.6 °F 25.0 °F 96% 29.85 in 0.8 mi NE 16.1 mph 23.0 mph 0.00 in Snow Light Snow
7:53 AM 26.1 °F 14.0 °F 23.0 °F 88% 29.83 in 0.8 mi NNE 15.0 mph - 0.00 in Snow Light Snow
8:02 AM 26.1 °F 16.8 °F 23.0 °F 88% 29.88 in 1.0 mi North 9.2 mph 21.9 mph 0.00 in Snow Light Snow
8:25 AM 26.1 °F 16.2 °F 23.0 °F 88% 29.89 in 1.0 mi North 10.4 mph - 0.01 in Snow Light Snow
8:32 AM 26.1 °F 15.6 °F 23.0 °F 88% 29.89 in 0.8 mi North 11.5 mph - 0.01 in Snow Light Snow
8:40 AM 26.1 °F 14.5 °F 23.0 °F 88% 29.88 in 0.5 mi North 13.8 mph 21.9 mph 0.02 in Fog , Snow Light Snow
8:53 AM 26.1 °F 14.5 °F 23.0 °F 88% 29.86 in 0.2 mi North 13.8 mph - 0.03 in Fog , Snow Snow
9:28 AM 27.0 °F 15.6 °F 23.0 °F 85% 29.90 in 0.2 mi NNE 13.8 mph - 0.01 in Fog , Snow Snow
9:53 AM 26.1 °F 14.5 °F 23.0 °F 88% 29.89 in 0.2 mi North 13.8 mph 20.7 mph 0.03 in Fog , Snow Snow
10:14 AM 26.1 °F 15.0 °F 23.0 °F 88% 29.91 in 0.8 mi North 12.7 mph - 0.00 in Snow Light Snow
10:53 AM 27.0 °F 15.6 °F 24.1 °F 89% 29.93 in 0.8 mi NNE 13.8 mph - 0.00 in Snow Light Snow
11:01 AM 27.0 °F 16.1 °F 24.1 °F 89% 29.92 in 0.5 mi North 12.7 mph - 0.00 in Fog , Snow Snow
11:27 AM 28.0 °F 17.5 °F 24.1 °F 85% 29.92 in 0.8 mi North 12.7 mph - 0.00 in Snow Light Snow
11:43 AM 28.0 °F 16.1 °F 24.1 °F 85% 29.92 in 1.0 mi North 16.1 mph - 0.00 in Snow Light Snow
11:51 AM 26.6 °F 14.7 °F 24.8 °F 93% 29.93 in 1.0 mi North 15.0 mph - 0.00 in Snow Light Snow
11:53 AM 27.0 °F 14.7 °F 24.1 °F 89% 29.94 in 1.0 mi North 16.1 mph - 0.00 in Snow Light Snow
12:11 PM 27.0 °F 14.7 °F 24.1 °F 89% 29.93 in 0.8 mi North 16.1 mph - 0.00 in Snow Light Snow
12:18 PM 27.0 °F 14.3 °F 24.1 °F 89% 29.93 in 0.5 mi North 17.3 mph - 0.00 in Fog , Snow Snow
12:25 PM 27.0 °F 14.3 °F 24.1 °F 89% 29.93 in 0.2 mi North 17.3 mph - 0.00 in Fog , Snow Snow
12:53 PM 27.0 °F 16.1 °F 24.1 °F 89% 29.94 in 0.2 mi North 12.7 mph - 0.01 in Fog , Snow Snow
1:53 PM 28.0 °F 18.1 °F 25.0 °F 88% 29.94 in 0.2 mi North 11.5 mph - 0.00 in Fog , Snow Snow
2:05 PM 28.0 °F 17.0 °F 25.0 °F 88% 29.94 in 0.5 mi North 13.8 mph - 0.00 in Fog , Snow Snow
2:10 PM 28.0 °F 17.5 °F 25.0 °F 88% 29.94 in 0.8 mi North 12.7 mph - 0.00 in Snow Light Snow
2:22 PM 28.0 °F 17.5 °F 24.1 °F 85% 29.94 in 1.5 mi North 12.7 mph - 0.00 in Snow Light Snow
2:53 PM 28.0 °F 17.5 °F 25.0 °F 88% 29.96 in 1.0 mi North 12.7 mph - 0.00 in Snow Light Snow
3:01 PM 28.0 °F 17.5 °F 25.0 °F 88% 29.96 in 0.8 mi North 12.7 mph - 0.00 in Snow Light Snow
3:06 PM 28.0 °F 18.1 °F 25.0 °F 88% 29.96 in 0.5 mi North 11.5 mph - 0.01 in Fog , Snow Snow
3:16 PM 27.0 °F 16.7 °F 25.0 °F 92% 29.96 in 0.5 mi North 11.5 mph - 0.01 in Fog , Snow Snow
3:53 PM 27.0 °F 18.0 °F 25.0 °F 92% 29.99 in 0.5 mi North 9.2 mph - 0.02 in Fog , Snow Snow
4:17 PM 27.0 °F 16.7 °F 24.1 °F 89% 29.98 in 0.2 mi North 11.5 mph - 0.01 in Fog , Snow Heavy Snow
4:53 PM 27.0 °F 16.7 °F 25.0 °F 92% 30.03 in 0.2 mi North 11.5 mph - 0.03 in Fog , Snow Snow
5:27 PM 27.0 °F 18.0 °F 24.1 °F 89% 30.00 in 0.5 mi North 9.2 mph - 0.01 in Fog , Snow Snow
5:34 PM 27.0 °F 18.7 °F 24.1 °F 89% 30.00 in 0.8 mi North 8.1 mph - 0.01 in Snow Light Snow
5:48 PM 26.6 °F 16.2 °F 24.8 °F 93% 30.00 in 0.5 mi North 11.5 mph - 0.01 in Fog , Snow Snow
5:53 PM 27.0 °F 16.1 °F 24.1 °F 89% 30.05 in 0.5 mi North 12.7 mph - 0.02 in Fog , Snow Snow
6:01 PM 27.0 °F 17.3 °F 24.1 °F 89% 30.01 in 0.8 mi North 10.4 mph - 0.00 in Snow Light Snow
6:20 PM 27.0 °F 17.3 °F 24.1 °F 89% 30.01 in 0.5 mi North 10.4 mph - 0.00 in Fog , Snow Snow
6:53 PM 26.1 °F 16.8 °F 24.1 °F 92% 30.07 in 0.5 mi North 9.2 mph - 0.00 in Fog , Snow Snow
7:01 PM 26.1 °F 16.2 °F 24.1 °F 92% 30.03 in 0.8 mi North 10.4 mph - 0.00 in Snow Light Snow
7:16 PM 26.1 °F 16.8 °F 24.1 °F 92% 30.04 in 1.0 mi North 9.2 mph - 0.00 in Snow Light Snow
7:25 PM 26.1 °F 17.6 °F 24.1 °F 92% 30.04 in 1.0 mi North 8.1 mph - 0.00 in Snow Light Snow
7:36 PM 26.1 °F 16.8 °F 24.1 °F 92% 30.04 in 0.8 mi North 9.2 mph - 0.00 in Snow Light Snow
7:44 PM 26.1 °F 16.2 °F 24.1 °F 92% 30.05 in 0.5 mi North 10.4 mph - 0.00 in Fog , Snow Snow
7:53 PM 26.1 °F 16.2 °F 24.1 °F 92% 30.11 in 0.5 mi North 10.4 mph - 0.00 in Fog , Snow Snow
8:01 PM 26.1 °F 16.2 °F 24.1 °F 92% 30.04 in 0.8 mi North 10.4 mph - 0.00 in Snow Light Snow
8:21 PM 25.0 °F 13.6 °F 24.1 °F 96% 30.03 in 1.2 mi North 12.7 mph - 0.00 in Snow Light Snow
8:53 PM 25.0 °F 14.2 °F 23.0 °F 92% 30.11 in 1.2 mi North 11.5 mph - 0.00 in Snow Light Snow
9:11 PM 25.0 °F 14.8 °F 23.0 °F 92% 30.06 in 1.8 mi North 10.4 mph - 0.00 in Snow Light Snow
9:15 PM 25.0 °F 16.3 °F 23.0 °F 92% 30.06 in 2.0 mi North 8.1 mph - 0.00 in Snow Light Snow
9:26 PM 25.0 °F 15.5 °F 23.0 °F 92% 30.07 in 3.0 mi North 9.2 mph - 0.00 in Snow Light Snow
9:48 PM 24.8 °F 12.9 °F 23.0 °F 93% 30.07 in 2.5 mi North 13.8 mph - 0.00 in Snow Light Snow
9:53 PM 25.0 °F 12.6 °F 23.0 °F 92% 30.13 in 1.8 mi North 15.0 mph - 0.00 in Snow Light Snow
10:16 PM 25.0 °F 13.1 °F 23.0 °F 92% 30.06 in 0.8 mi North 13.8 mph - 0.01 in Snow Light Snow
10:35 PM 25.0 °F 14.8 °F 23.0 °F 92% 30.07 in 0.8 mi North 10.4 mph - 0.01 in Snow Light Snow
10:53 PM 25.0 °F 14.2 °F 23.0 °F 92% 30.14 in 0.8 mi North 11.5 mph - 0.02 in Snow Light Snow
11:02 PM 25.0 °F 14.2 °F 23.0 °F 92% 30.08 in 1.0 mi North 11.5 mph - 0.00 in Snow Light Snow
11:22 PM 25.0 °F 13.6 °F 23.0 °F 92% 30.07 in 1.8 mi North 12.7 mph - 0.00 in Snow Light Snow
11:34 PM 25.0 °F 15.5 °F 24.1 °F 96% 30.07 in 2.0 mi North 9.2 mph - 0.00 in Snow Light Snow
11:53 PM 26.1 °F 15.0 °F 24.1 °F 92% 30.14 in 2.5 mi NNE 12.7 mph - 0.00 in Snow Light Snow